Welcome to the New NWS' Forecast!
Most changes are behind the scenes, but click here for differences you might notice.
Latest weather observations around

Huntsville, Huntsville International / Jones Field (KHSV)

Using English Units (Switch to International System of Units)
Date/ Time (CST) Wind (mph) Vis. (mi) Weather Sky Cond. Temp (°F) Rel. Humidity Wind Chill (°F) Heat Index (°F) Pressure Precip. (in)
Air Dwpt 6 hour Altimeter (inHg) Sea level (inHg) 1 hr 3 hr 6 hr
Max Min
Dec 15 08:53 NW 9 7 Mostly Cloudy FEW038 BKN250 33 27     78% 25   30.17 30.18      
Dec 15 07:53 WNW 5 7 Cloudy FEW040 OVC250 30 26     85% 25   30.16 30.17      
Dec 15 06:53 NW 6 7 Mostly Cloudy FEW040 BKN250 28 25     88% 22   30.12 30.13      
Dec 15 05:53 WNW 3 8 Mostly Cloudy BKN250 27 25     92% 23   30.11 30.11      
Dec 15 04:53 WNW 3 6 Fog/Mist CLR 27 24     89% 23   30.09 30.1      
Dec 15 03:53 Calm 6 Fog/Mist CLR 27 24     89%     30.09 30.09      
Dec 15 02:53 WNW 3 7 Clear CLR 29 25     85% 25   30.08 30.09      
Dec 15 01:53 Calm 8 Clear CLR 30 24     78%     30.08 30.09      
Dec 15 00:53 NNW 3 8 Clear CLR 32 25     75% 29   30.09 30.09      
Dec 14 23:53 N 5 9 Mostly Cloudy BKN140 34 26     72% 30   30.09 30.09      
Dec 14 22:53 N 9 9 Partly Cloudy SCT150 35 26     69% 28   30.1 30.1      
Dec 14 21:53 N 10 9 Partly Cloudy SCT140 36 27     70% 29   30.08 30.09      
Dec 14 20:53 N 9 9 Mostly Clear FEW250 37 29     72% 30   30.06 30.06      
Dec 14 19:53 N 13 10 Clear CLR 40 30     67% 32   30.05 30.05      
Dec 14 18:53 NNW 6 10 Clear CLR 42 32     67% 38   30.01 30.01      
Dec 14 17:53 N 6 10 Clear CLR 45 33     63% 42   29.98 29.99      
Dec 14 16:53 N 6 10 Mostly Clear FEW250 47 33     58% 44   29.98 29.98      
Dec 14 15:53 NNW 8 10 Mostly Clear FEW250 52 34     50%     29.97 29.97      
Dec 14 14:53 NW 6 10 Clear CLR 53 33     46%     29.96 29.96      
Dec 14 13:53 3 10 Mostly Clear FEW250 52 34     50%     29.96 29.96      
Dec 14 12:53 5 10 Mostly Clear FEW250 51 33     50%     29.96 29.96      
Dec 14 11:53 N 5 10 Mostly Clear FEW250 50 33     52% 48   29.97 29.97      
Dec 14 10:53 NNW 5 10 Mostly Clear FEW250 48 32     54% 46   29.99 29.99      
Dec 14 09:53 NE 6 10 Mostly Clear FEW250 46 32     58% 43   29.98 29.98      
Dec 14 08:53 NE 10 10 Mostly Clear FEW040 FEW250 44 33     65% 39   29.95 29.95      
Dec 14 07:53 Calm 10 Mostly Clear FEW040 FEW250 38 30     73%     29.93 29.93      
Dec 14 06:53 Calm 10 Mostly Clear FEW040 31 27     85%     29.92 29.93      
Dec 14 05:53 SE 3 10 Clear CLR 31 26     82% 28   29.9 29.91      
Dec 14 04:53 Calm 10 Clear CLR 31 27     85%     29.87 29.87      
Dec 14 03:53 SE 3 10 Clear CLR 35 27     72% 32   29.85 29.85      
Dec 14 02:53 Calm 10 Clear CLR 38 27     64%     29.85 29.85      
Dec 14 01:53 WSW 6 10 Clear CLR 40 27     60% 36   29.86 29.86      
Dec 14 00:53 SSW 5 10 Clear CLR 37 27     67% 33   29.85 29.85      
Dec 13 23:53 SW 6 10 Clear CLR 40 26     57% 36   29.84 29.84      
Dec 13 22:53 SW 6 10 Clear CLR 41 27     57% 37   29.84 29.84      
Dec 13 21:53 SSW 6 10 Clear CLR 42 27     55% 38   29.85 29.85      
Dec 13 20:53 SW 7 10 Mostly Clear FEW250 42 26     53% 38   29.85 29.85      
Dec 13 19:53 SW 9 10 Mostly Clear FEW250 45 27     49% 40   29.83 29.84      
Dec 13 18:53 SSW 10 10 Mostly Clear FEW250 43 26     51% 37   29.84 29.85      
Dec 13 17:53 SSW 8 10 Mostly Clear FEW250 46 24     42% 42   29.82 29.83      
Dec 13 16:53 SSW 10 10 Clear CLR 48 23     37% 43   29.82 29.83      
Dec 13 15:53   10 Clear CLR 51 21     30%     29.82 29.82      
Dec 13 14:53   10 Clear CLR 52 20     28%     29.85 29.85      
Dec 13 13:53   10 Clear CLR 51 19     28%     29.87 29.88      
Dec 13 12:53 SSW 16 10 Clear CLR 50 19     29% 44   29.91 29.91      
Dec 13 11:53 SW 15 10 Clear CLR 47 18     31% 41   29.95 29.96      
Dec 13 10:53 SSW 10 10 Clear CLR 44 18     35% 39   30.01 30.02      
Dec 13 09:53 SSW 8 10 Clear CLR 39 17     41% 33   30.05 30.06      
Dec 13 08:53 S 7 10 Clear CLR 34 20     56% 28   30.06 30.07      
Dec 13 07:53 SSE 5 10 Clear CLR 28 23     81% 23   30.06 30.07      
Dec 13 05:53 ESE 3 10 Clear CLR 25 20     81% 21   30.07 30.08      
Dec 13 04:53 Calm 10 Clear CLR 26 19     74%     30.07 30.08      
Dec 13 03:53 Calm 10 Clear CLR 25 20     81%     30.08 30.09      
Dec 13 02:53 Calm 10 Clear CLR 26 18     71%     30.1 30.11      
Dec 13 01:53 NW 5 10 Clear CLR 29 18     63% 24   30.1 30.11      
Dec 13 00:53 WNW 3 10 Clear CLR 29 17     61% 25   30.1 30.11      
Dec 12 23:53 Calm 10 Clear CLR 30 17     58%     30.11 30.11      
Dec 12 22:53 WNW 3 10 Clear CLR 31 16     53% 28   30.12 30.12      
Dec 12 21:53 NNW 5 10 Clear CLR 32 17     54% 27   30.11 30.12      
Dec 12 20:53 NNW 8 10 Clear CLR 35 17     47% 29   30.11 30.12      
Dec 12 19:53 N 10 10 Clear CLR 37 19     48% 30   30.1 30.11      
Dec 12 18:53 NNW 9 10 Clear CLR 39 23     52% 33   30.08 30.09      
Dec 12 17:53 NW 8 10 Clear CLR 41 24     51% 36   30.07 30.07      
Dec 12 16:53 NW 11 10 Mostly Clear FEW250 43 25     49% 37   30.04 30.04      
Dec 12 15:53   10 Mostly Clear FEW250 47 24     40%     30.04 30.04      
Dec 12 14:53   10 Mostly Clear FEW049 50 27     41%     30.03 30.03      
Dec 12 13:53   10 Mostly Clear FEW049 50 27     41%     30.03 30.02      
Dec 12 12:53   10 Mostly Clear FEW049 50 28     42%     30.03 30.03      
Dec 12 11:53 NNW 13 10 Partly Cloudy SCT044 50 29     44% 45   30.05 30.05      
Dec 12 10:53 NW 16 10 Mostly Cloudy BKN039 BKN046 48 33     56% 42   30.07 30.07      
Dec 12 09:53   10 Cloudy OVC042 47 33     58%     30.06 30.06      
Dec 12 08:53 NW 11 10 Cloudy OVC037 47 35     63% 42   30.04 30.03      
Jun 12 04:53 SE 7 10 Partly Cloudy SCT025 72 70     93%   73 30.13 30.1      
Jun 11 22:53 ESE 3 10 Clear CLR 78 70     76%   79 30.12 30.09      
Jun 10 17:53 S 10 10 Partly Cloudy FEW060 SCT 85 61     45%   85 30.03 30.01      
Jun 09 19:53 W 3 10 Mostly Clear FEW080 77 60     56%   77   29.92      
Jun 08 19:53 NNW 6 10 Partly Cloudy SCT250 73 56     55%   73 29.89 29.87      
Jun 07 10:53 NE 17 10 Mostly Clear FEW050 FEW250 78 53     42%   78 29.89 29.87